Fryeburg, ME

12:28 AM EST on February 21, 2017 (GMT -0500)
Eastern Slopes Regional

Weather History for KIZG - May, 2012

Change the Weather History Date:

Wednesday, May 2, 2012

  Actual Average Record
Temperature  
Mean Temperature 44 °F -  
Max Temperature 48 °F 62 °F 91 °F (2001)
Min Temperature 41 °F 35 °F 27 °F (2008)
Degree Days  
Heating Degree Days 20    
Moisture  
Dew Point 42 °F    
Average Humidity 89    
Maximum Humidity 96    
Minimum Humidity 77    
Precipitation  
Precipitation 0.00 in - - ()
Sea Level Pressure  
Sea Level Pressure 30.22 in    
Wind  
Wind Speed 2 mph (ESE)    
Max Wind Speed 7 mph    
Max Gust Speed -    
Visibility 10 miles    
Events      
Averages and records for this station are not official NWS values.
T = Trace of Precipitation, MM = Missing Value Source: NWS Daily Summary

Daily Weather History Graph

Daily Weather History Graph

Search for Another Location

Airport or City:

Trip Planner

Search our weather history database for the weather conditions in past years. The results will help you decide how hot, cold, wet, or windy it might be!

Date:

Astronomy

May. 02, 2012 Rise Set
Actual Time 5:33 AM EDT 7:48 PM EDT
Civil Twilight 5:01 AM EDT 8:20 PM EDT
Nautical Twilight 4:22 AM EDT 9:00 PM EDT
Astronomical Twilight 3:38 AM EDT 9:44 PM EDT
Moon 3:50 PM EDT (5/2) 3:10 AM EDT (5/2)
Length of Visible Light 15h 19m
Length of Day
14h 15m
Waxing Gibbous, 83% of the Moon is Illuminated
May 2
Waxing Gibbous
May 5
Full
May 12
Last Quarter
May 20
New
May 28
First Quarter

Hourly Weather History & Observations

Time (EDT) Temp. Windchill Dew Point Humidity Pressure Visibility Wind Dir Wind Speed Gust Speed Precip Events Conditions
12:26 AM 42.8 °F - 39.2 °F 87% 30.18 in 10.0 mi Calm Calm - N/A   Overcast
12:54 AM 42.1 °F 40.2 °F 39.9 °F 92% 30.18 in 10.0 mi East 3.5 mph - N/A   Overcast
1:54 AM 41.0 °F - 39.9 °F 96% 30.19 in 10.0 mi Calm Calm - N/A   Overcast
2:54 AM 41.0 °F 39.0 °F 39.9 °F 96% 30.21 in 10.0 mi East 3.5 mph - N/A   Overcast
3:54 AM 41.0 °F 39.0 °F 39.9 °F 96% 30.19 in 10.0 mi East 3.5 mph - N/A   Overcast
4:07 AM 41.0 °F - 39.2 °F 93% 30.18 in 10.0 mi Calm Calm - N/A   Overcast
4:54 AM 41.0 °F - 39.9 °F 96% 30.21 in 10.0 mi Calm Calm - N/A   Overcast
5:13 AM 41.0 °F - 39.2 °F 93% 30.20 in 10.0 mi Calm Calm - N/A   Overcast
5:54 AM 41.0 °F - 39.9 °F 96% 30.22 in 10.0 mi Calm Calm - N/A   Overcast
6:26 AM 42.8 °F - 39.2 °F 87% 30.20 in 10.0 mi Calm Calm - N/A   Overcast
6:54 AM 42.1 °F - 41.0 °F 96% 30.23 in 10.0 mi Calm Calm - N/A   Overcast
7:23 AM 42.8 °F - 39.2 °F 87% 30.22 in 10.0 mi Calm Calm - N/A   Overcast
7:54 AM 43.0 °F - 41.0 °F 93% 30.25 in 10.0 mi Calm Calm - N/A   Overcast
8:54 AM 43.0 °F - 39.9 °F 89% 30.26 in 10.0 mi Calm Calm - N/A   Overcast
9:47 AM 44.6 °F 42.2 °F 41.0 °F 87% 30.24 in 10.0 mi Variable 4.6 mph - N/A   Overcast
9:54 AM 45.0 °F - 42.1 °F 90% 30.26 in 10.0 mi Calm Calm - N/A   Overcast
10:54 AM 46.0 °F 44.8 °F 41.0 °F 83% 30.25 in 10.0 mi East 3.5 mph - N/A   Overcast
11:26 AM 46.4 °F 45.2 °F 41.0 °F 81% 30.24 in 10.0 mi East 3.5 mph - N/A   Overcast
11:54 AM 46.9 °F - 41.0 °F 80% 30.25 in 10.0 mi Calm Calm - N/A   Overcast
12:32 PM 46.4 °F 45.2 °F 42.8 °F 87% 30.24 in 10.0 mi South 3.5 mph - N/A   Overcast
12:54 PM 46.9 °F - 41.0 °F 80% 30.25 in 10.0 mi East 4.6 mph - N/A   Overcast
1:54 PM 48.0 °F - 42.1 °F 80% 30.24 in 10.0 mi Calm Calm - N/A   Overcast
2:54 PM 48.9 °F - 42.1 °F 77% 30.24 in 10.0 mi Calm Calm - N/A   Overcast
3:54 PM 48.0 °F - 43.0 °F 83% 30.22 in 10.0 mi ESE 4.6 mph - N/A   Overcast
4:54 PM 48.0 °F - 43.0 °F 83% 30.22 in 10.0 mi SE 4.6 mph - N/A   Overcast
5:54 PM 46.9 °F - 44.1 °F 90% 30.22 in 10.0 mi ESE 3.5 mph - N/A   Overcast
6:20 PM 48.2 °F - 42.8 °F 82% 30.21 in 10.0 mi SE 5.8 mph - N/A   Overcast
6:33 PM 46.4 °F 43.5 °F 42.8 °F 87% 30.21 in 9.0 mi ESE 5.8 mph - N/A   Overcast
6:54 PM 46.0 °F 43.9 °F 45.0 °F 96% 30.23 in 4.0 mi ESE 4.6 mph - N/A   Overcast
7:24 PM 46.4 °F - 44.6 °F 93% 30.21 in 10.0 mi Calm Calm - N/A   Overcast
7:54 PM 46.0 °F - 44.1 °F 93% 30.23 in 10.0 mi Calm Calm - N/A   Overcast
8:39 PM 46.4 °F - 42.8 °F 87% 30.23 in 10.0 mi Calm Calm - N/A   Overcast
8:54 PM 46.0 °F - 43.0 °F 89% 30.24 in 10.0 mi Calm Calm - N/A   Overcast
9:13 PM 46.4 °F - 42.8 °F 87% 30.23 in 10.0 mi Calm Calm - N/A   Overcast
9:54 PM 46.0 °F 43.1 °F 43.0 °F 89% 30.24 in 10.0 mi SE 5.8 mph - N/A   Overcast
10:51 PM 44.6 °F 41.4 °F 42.8 °F 93% 30.21 in 10.0 mi ESE 5.8 mph - N/A   Overcast
10:54 PM 45.0 °F 41.2 °F 42.1 °F 90% 30.22 in 10.0 mi ESE 6.9 mph - N/A   Overcast
11:54 PM 44.1 °F 42.5 °F 42.1 °F 93% 30.22 in 10.0 mi SSE 3.5 mph - N/A   Overcast